Regional Weather Roundup
Issued by NWS Wakefield, VA

Home | Current Version | Previous Version | Graphics & Text | Print | Product List | Glossary On
Versions: 1 2 3 4 5 6 7 8 9 10 11 12 13 14 15 16 17 18 19 20 21 22 23 24 25 26 27
000
ASUS41 KAKQ 250415
RWRAKQ

REGIONAL WEATHER ROUNDUP
NATIONAL WEATHER SERVICE WAKEFIELD VA
1200 AM EDT SUN SEP 25 2016

Note: "fair" indicates few or no clouds below 12,000 feet with no
significant weather and/or obstructions to visibility. * = Denotes
station may not report precipitation (e.g., rain,snow,etc.),
thunder or fog.

VAZ042-051-052>054-056-250500-
NORTHERN VIRGINIA

CITY           SKY/WX    TMP DP  RH WIND       PRES   REMARKS
WASH NATIONAL  PTCLDY    66  62  87 NE5       30.16R
DULLES         PTCLDY    59  57  93 CALM      30.16S
FORT BELVOIR   CLEAR     61  59  94 CALM      30.15R
QUANTICO         N/A     68  62  81 SE10      30.16R
FREDERICKSBRG* CLOUDY    67  64  88 E3        30.14S
STAFFORD*      PTCLDY    63  62  94 CALM      30.19R
WARRENTON      PTCLDY    63  57  81 CALM      30.15S
CULPEPER*      CLOUDY    66  64  93 CALM      30.16S
MANASSAS*      CLEAR     64  63  94 CALM      30.16S
LEESBURG*      CLEAR     63  63 100 CALM      30.17F
WINCHESTER     CLOUDY    63  54  72 CALM      30.16S
FRONT ROYAL*   CLOUDY    63  61  94 CALM      30.15S
LURAY*         CLOUDY    66  59  77 N3        30.16S
$$

VAZ048-049-060>072-079>083-250500-
CENTRAL AND SOUTH CENTRAL VIRGINIA

CITY           SKY/WX    TMP DP  RH WIND       PRES   REMARKS
RICHMOND       CLOUDY    68  64  87 NE7       30.13S
CHESTERFIELD*  CLOUDY    68  54  60 NE3       30.15R
PETERSBURG*    CLOUDY    72  66  82 NE6       30.13S
HANOVER        CLOUDY    68  63  84 VRB5      30.15R
TAPPAHANNOCK*  CLOUDY    69  63  83 NE8       30.15R
QUINTON*       CLOUDY    68  66  93 N3        30.13S
CHARLOTTSVILLE CLOUDY    71  65  81 E3        30.14S
GORDONSVILLE*  CLOUDY    68  64  88 CALM      30.14S
ORANGE*          N/A     68  68 100 CALM      30.16S
LOUISA*        CLOUDY    72  66  83 E3        30.14R
BUMPASS*       CLOUDY    67  65  94 E3        30.14S
FARMVILLE*     LGT RAIN  72  67  86 NE6       30.12S
CREWE*         CLOUDY    69  69 100 CALM      30.13R
FORT PICKETT*  CLOUDY    68  67  98 E6        30.13R
CHASE CITY*    CLOUDY    72  67  84 NE3       30.12R
CLARKSVILLE*   CLOUDY    72  70  94 NE5       30.10R
SOUTH HILL*    CLOUDY    71  67  87 N3        30.17R
LAWRENCEVILLE* CLOUDY    71  67  89 NE3       30.11S
EMPORIA*       CLOUDY    70  66  88 N3        30.12S
$$

VAZ088>098-250500-
SOUTHEAST VIRGINIA

CITY           SKY/WX    TMP DP  RH WIND       PRES   REMARKS
NORFOLK        CLOUDY    71  65  81 NE10      30.10R
VIRGINIA BEACH MOCLDY    71  63  75 NE8       30.09S
NORFOLK NAVAL  NOT AVBL
WEST POINT*    CLOUDY    69  64  85 NE5       30.14S
SALUDA*        CLOUDY    68  65  90 NE6       30.13S
NEWPORT NEWS   CLOUDY    69  66  90 NE5       30.12R
LANGLEY AFB    CLOUDY    70  66  88 NE14      30.10S
FORT EUSTIS    LGT RAIN  72  66  83 NE3       30.09S
WILLIAMSBURG*  CLOUDY    70  68  94 CALM      30.13R
HR EXEC AP*    CLOUDY    72  64  78 E7        30.12S
FRANKLIN*      CLOUDY    71  67  87 NE3       30.11S
US460-WAKEFLD  CLOUDY    71  66  84 NE3       30.11S
$$

VAZ020-022-025-037-045-250500-
WEST CENTRAL AND SOUTHWEST VIRGINIA

CITY           SKY/WX    TMP DP  RH WIND       PRES   REMARKS
STAUNTON*      CLOUDY    68  60  76 NE3       30.18S
WAYNESBORO*    CLOUDY    68  63  82 CALM      30.17R
HOT SPRINGS VA MOCLDY    63  63 100 E6        30.23S FOG
LYNCHBURG      CLOUDY    71  66  84 NE7       30.15R
DANVILLE       CLOUDY    74  70  87 E8        30.09R
SOUTH BOSTON*  CLOUDY    73  70  89 E6        30.10R
MARTINSVILLE   CLEAR     71  66  85 N5        30.13R
ROANOKE        PTCLDY    72  68  87 SE7       30.15R
BLACKSBURG     CLEAR     66  63  90 CALM      30.20R
DUBLIN*        CLEAR     67  62  84 CALM      30.17S
MARION*        CLEAR     63  61  93 CALM      30.22R
HILLSVILLE*    CLEAR     66  62  87 CALM      30.19R
RICHLANDS*     FAIR      69  62  79 CALM      30.19S
WISE*          CLEAR     70  54  56 N3        30.21S
ABINGDON*      CLEAR     67  62  82 CALM      30.16S
$$

MDZ021>025-VAZ099-100-250500-
SOUTHERN MARYLAND AND THE DELMARVA PENINSULA

CITY           SKY/WX    TMP DP  RH WIND       PRES   REMARKS
PATUXENT RIVER CLEAR     64  60  87 E6        30.14R
BAY BRIDGE APT CLEAR     61  59  94 MISG      30.15S
LEONARDTOWN    CLEAR     61  59  94 CALM      30.16R
DOVER          CLEAR     59  59 100 W2        30.13F FOG
GEORGETOWN     CLEAR     58  57  97 CALM      30.15S
EASTON         NOT AVBL
CAMBRIDGE      CLEAR     57  55  94 CALM      30.14S
SALISBURY      FOG       59  59 100 CALM      30.14S VSB 1/2
OCEAN CITY     CLEAR     61  56  83 N5        30.13S
WALLOPS ISLAND PTCLDY    64  62  93 N8        30.13F
ACCOMACK*      CLOUDY    66  61  85 N3        30.13S
$$

NCZ012>017-030>032-250500-
NORTH CENTRAL AND EASTERN NORTH CAROLINA

CITY           SKY/WX    TMP DP  RH WIND       PRES   REMARKS
ROANOKE RAPIDS CLOUDY    70  68  94 NE5       30.09S
RALEIGH        PTCLDY    72  69  90 CALM      30.05S
ELIZABETH CITY MOCLDY    72  67  84 NE12      30.09R
AHOSKIE*       PTCLDY    71  68  90 E7        30.10S
EDENTON*       MOCLDY    74  74 100 NE7       30.09S
CURRITUCK*     CLOUDY    73  66  79 NE8       30.10S
KILL DEVIL HLS NOT AVBL
MANTEO         PTCLDY    72  68  87 NE14G20   30.08S
CAPE HATTERAS  MOCLDY    75  69  81 NE9       30.06S
TARBORO*       NOT AVBL
GOLDSBORO      CLEAR     72  72 100 E1        30.03S
WASHINGTON     CLEAR     72  70  95 E5        30.07S
GREENVILLE     CLOUDY    73  72  94 E6        30.08S FOG
NEW BERN       CLEAR     74  72  93 CALM      30.07R
WILMINGTON     CLEAR     71  70  96 CALM      30.04F
$$

VAZ048-250500-
ELSEWHERE

CITY           SKY/WX    TMP DP  RH WIND       PRES   REMARKS
HARRISBURG PA  CLEAR     57  49  74 N5        30.18R
BALTIMORE      PTCLDY    58  57  97 CALM      30.15S
ANNAPOLIS      CLEAR     66  64  93 NW3       30.15S
ANDREWS AFB    CLEAR     57  55  94 NE3       30.14S
PHILADELPHIA   CLEAR     62  44  51 NE6       30.15F
HENDERSON NC   CLOUDY    71  67  89 E8        30.09R
GREENSBORO     CLEAR     75  67  76 NW3       30.07S
ROCKY MOUNT    CLOUDY    74  72  93 NE8       30.08R
$$

VAZ100-250500-
MARINE

STATION/POSITION TIME  TEMP    WIND        PRES    WAVE   SWELL
                       AIR SEA DIR/SP/G            HT/PER HT/PER
                 (UTC) (F)     (DEG/KT/KT) (MB)    (FT/S) (FT/S)
BRANDYWINE LGT   0300   66      60/  4/  5   N/A
CAPE MAY NJ      0300   61 74   60/  2/  3 1020.2R
LEWES DE         0300   68 73   50/  6/  7 1020.4R
OCEAN-CITY-INLET 0300   67 73   50/  4/  7 1020.7R
WACHAPREAGUE VA  0300   67 77   10/  5/  9 1019.9R
THOMAS POINT MD  0400   67 76   80/  3/  3 1022.2S
GOOSES REEF MD   0300   68 76  100/  8/ 10 1021.1F   1/ 3
COVE POINT MD    0300   66     110/  9/ 11 1021.1F
SOLOMONS ISLAND  0300   67 77   60/  5/  7   N/A
BISHOPS HEAD MD  0300   65 74   60/  8/ 12 1020.7S
PINEY POINT MD   0300           90/  6/  8   N/A
POTOMAC MD       0300   68 77   70/ 10/ 12 1019.6R   1/ 3
CAMBRIDGE MD     0300   63 76  120/  2/  4 1019.9S
LEWISETTA VA     0300   69 76   80/ 10/ 14 1020.0R
RAPPAHANNOCK LGT 0300           30/ 15/ 17 1020.4R
STINGRAY PT      0300   71 77  340/ 14/ 16 1020.2R   2/ 3
YORK RVR RNG VA  0300   71      60/ 13/ 15 1019.1R
YORKTOWN VA      0300   71 77   60/ 13/ 15 1019.1R
JAMESTOWN VA     0300   72 79   50/  8/ 12   N/A     0
DOMINION TERM VA 0300   72      40/  5/ 10 1019.5R
KIPTOPEKE VA     0300      77   50/  7/ 12   N/A
CHES BAY BRIDGE  0300   72 77   30/ 16/ 19 1019.0R
CAPE HENRY VA    0300   72      40/ 15/ 17   N/A
WILLOUBY STN VA  0300   72      60/ 13/ 14   N/A
CAPE HENRY BUOY  0312      77                N/A     5/11   2/11
1ST LANDING BUOY 0300   72 76   80/ 16/ 17 1018.9R   3/ 4
CAPE CHARLES BUO 0326      77                N/A     5/10   2/11
OFFSHORE WE BUOY 0321      76                N/A     6/11   3/11
64NM E OF VA BCH 0350   73 74   20/ 16/ 19 1017.9R   6/10   3/10
DUCK PIER NC     0300   73 78   40/ 16/ 18 1018.0R
44056 DUCK FRF   0311      77                N/A     5/11   2/11
OREGON INLET NC  0300   74 79   40/ 11/ 16 1018.0R
HATTERAS NC      0300   76 82   40/  8/ 12 1017.6R
DIAMOND SHLS NC  0350   77 81   40/ 16/ 19 1017.2F   7/11   7/11
CAPE LOOKOUT NC  0400   80      60/  9/ 11 1017.3R
$$




USA.gov is the U.S. government's official web portal to all federal, state and local government web resources and services.